Regional Weather Roundup
Issued by NWS

Home | Current Version | Previous Version | Graphics & Text | Print | Product List | Glossary Off
Versions: 1 2 3 4 5 6 7 8 9 10 11 12 13 14 15 16 17 18 19 20 21 22 23 24 25 26 27 28 29 30 31 32 33 34 35 36 37 38 39 40 41 42 43 44 45 46 47 48 49 50

000
ASUS43 KTOP 221108
RWRKS

WEATHER ROUNDUP FOR KANSAS
NATIONAL WEATHER SERVICE GOODLAND KS
500 AM CST MON JAN 22 2018

NOTE:  "FAIR" INDICATES FEW OR NO CLOUDS BELOW 12,000 FEET WITH NO
SIGNIFICANT WEATHER AND/OR OBSTRUCTIONS TO VISIBILITY.

KSZ001>006-013>018-027>032-041>047-221200-
NORTHWEST KANSAS

CITY           SKY/WX    TMP DP  RH WIND       PRES   REMARKS
GOODLAND       FOG       27  25  92 NW40G56   29.78R VSB 1/4 WCI   9
HAYS           LGT SNOW  32  31  96 NW24G35   29.54R FOG     WCI  19
HILL CITY      LGT SNOW  32  30  92 NW36G46   29.61R VSB 3/4 WCI  16
RUSSELL        LGT SNOW  34  33  96 NW25G31   29.50R VSB 3/4 WCI  21
$$

KSZ061>065-074>080-084>089-221200-
SOUTHWEST KANSAS

CITY           SKY/WX    TMP DP  RH WIND       PRES   REMARKS
DODGE CITY     CLOUDY    32  24  72 NW41G55   29.64R WCI  16
ELKHART        CLEAR     31  24  76 NW25G36   29.85S WCI  18
GARDEN CITY    FLURRIES  30  26  85 NW35G48   29.71R WCI  14
GREAT BEND     FLURRIES  33  31  92 NW23G31   29.51R WCI  21
LIBERAL        CLOUDY    32  22  66 NW29G45   29.81R WCI  18
PRATT          CLOUDY    34  27  75 NW32G41   29.55S WCI  20
$$

KSZ066>073-081>083-090>101-221200-
SOUTHEAST KANSAS

CITY           SKY/WX    TMP DP  RH WIND       PRES   REMARKS
CHANUTE          N/A     37  31  78 SW16      29.55S WCI  28
COFFEYVILLE    CLEAR     40  30  67 SW15G25   29.61R WCI  32
HUTCHINSON     CLOUDY    36  33  89 W18       29.47S WCI  26
MEDICINE LODGE   N/A     42  27  55 NW28G40   29.59R
NEWTON         CLOUDY    35  32  88 SW15      29.47F WCI  25
PARSONS        PTCLDY    39  31  72 SW15G21   29.60R WCI  31
WICHITA INTL   CLOUDY    38  31  76 W17G26    29.51F WCI  28
WICHITA JABRA  CLOUDY    37  31  78 SW16G26   29.49F WCI  28
WICHITA MCCONL CLOUDY    38  29  70 W17G29    29.50F WCI  28
WINFIELD       CLOUDY    39  30  70 SW23G31   29.57F WCI  28
$$

KSZ007>012-019>026-033>040-048>060-102>105-221200-
NORTHEAST KANSAS

CITY           SKY/WX    TMP DP  RH WIND       PRES   REMARKS
CONCORDIA      LGT RAIN  35  35 100 N12       29.45S FOG     WCI  27
EMPORIA        CLOUDY    33  30  88 SW10      29.47F WCI  25
LAWRENCE       MOCLDY    37  35  92 W5        29.46R
MANHATTAN      CLOUDY    36  34  92 SW8       29.45F FOG
MARYSVILLE     FOG       36  36 100 NW5       29.43F VSB 1/4
OLATHE IND     CLEAR     36  35  96 S8        29.47R
OLATHE EXE     CLEAR     38  37  97 SW7       29.46S
SALINA         CLOUDY    37  36  96 W5        29.45F FOG
TOPEKA BILLARD PTCLDY    37  36  96 SW5       29.45F
TOPEKA FORBES  CLOUDY    37  34  89 SW10      29.44F WCI  30
$$




USA.gov is the U.S. government's official web portal to all federal, state and local government web resources and services.